Simultaneous Nadir Overpasses (SNOs) Predictions

Prediction of SNOs between GOES-16 and NOAA-19 Satellite Orbit:

Table of predicted SNOs for the next 14.0 days since TLE Epoch: 7/21/2023
Index Date Time (GOES-16) GOES-16 Lat,Lon NOAA-19 Lat,Lon Distance(km) Time Diff (sec)
1 07/24/2023 01:53:04 0.00, -75.21 -0.72, -78.44 367.70 80
2 07/25/2023 01:41:00 0.00, -75.22 -0.06, -75.50 31.90 80
3 07/26/2023 01:31:37 0.00, -75.23 0.60, -72.56 303.96 80
4 07/28/2023 13:48:52 -0.01, -75.25 0.49, -77.29 233.30 80
5 07/29/2023 13:39:28 -0.01, -75.26 -0.19, -74.35 102.75 80
6 07/30/2023 13:27:25 -0.00, -75.27 -0.88, -71.42 438.77 80
7 08/01/2023 01:57:00 0.01, -75.27 -0.91, -79.15 443.49 80
8 08/02/2023 01:44:57 0.01, -75.28 -0.23, -76.22 107.10 80
9 08/03/2023 01:35:33 0.00, -75.30 0.45, -73.28 229.57 80
